Hourly Data Report for July 01, 2021

MANIWAKI AIRPORT
QUEBEC
Current Station Operator: ECCC - MSC

46°16'29.000" N
75°59'31.000" W
199.70 m
7034482
71721
WMJ

Download Data

Hourly Data (July 2021)
Hourly Data Report for July 1, 2021
TIME
LST
Temp Definition
°C
Dew Point Definition
°C
Rel Hum Definition
%
Precip. Amount Definition
mm

Wind Dir Definition
10's deg

Wind Spd Definition
km/h
Visibility Definition
km
Stn Press Definition
kPa
Hmdx Definition


Wind Chill Definition


Weather Definition


00:00 13.3 13.1 99 0.0   0   98.90     LegendNANA
01:00 13.2 13.0 99 0.0   0   98.92     LegendNANA
02:00 13.9 13.8 99 0.0 16 1   98.89     LegendNANA
03:00 13.9 13.7 99 0.0 0 1   98.86     LegendNANA
04:00 14.0 13.7 99 0.0 4 1   98.87     LegendNANA
05:00 14.5 14.2 98 0.0 2 2   98.91     LegendNANA
06:00 15.0 14.7 98 0.2 20 1   98.96     LegendNANA
07:00 15.5 15.0 96 0.8 3 1   98.97     LegendNANA
08:00 15.8 14.6 93 0.7 8 3   98.98     LegendNANA
09:00 16.3 14.6 89 0.1 36 5   98.99     LegendNANA
10:00 17.2 14.7 86 0.0 32 4   98.99     LegendNANA
11:00 18.1 14.7 80 0.0 36 6   98.99     LegendNANA
12:00 19.8 13.0 65 0.0 35 4   98.98     LegendNANA
13:00 20.3 11.2 56 0.0 2 4   98.94     LegendNANA
14:00 21.0 13.0 60 0.0 15 4   98.91     LegendNANA
15:00 19.8 14.3 70 0.0 36 18   98.89     LegendNANA
16:00 18.4 16.0 86 0.5 2 4   98.87     LegendNANA
17:00 21.4 14.3 64 0.0 36 5   98.83 25   LegendNANA
18:00 20.4 14.4 69 0.0 6 5   98.85     LegendNANA
19:00 19.0 14.8 77 0.0 36 7   98.86     LegendNANA
20:00 16.7 15.3 92 0.0 35 2   98.87     LegendNANA
21:00 17.3 14.6 84 0.0 35 6   98.87     LegendNANA
22:00 16.5 14.6 89 0.0 36 6   98.84     LegendNANA
23:00 16.1 14.3 89 0.0 1 4   98.80     LegendNANA

Notes on Data Quality.

Legend

  • E = Estimated
  • M = Missing
  • NA = Not Available*
  • [empty] = Indicates an unobserved value
Date modified: